Location: Palomar Mountain Lodge
(33.3110°N, 116.8495°W)
Time: 02:14:13
(UTC-07:00)

CARTOSAT-1 - Pass Details

Date: 14 June 2018
Orbit: 618 x 619 km, 97.8° (Epoch: 19 October)

Event Time Altitude Azimuth Distance (km) Brightness Sun altitude
Exits shadow 23:01:40 51° 316° (NW) 782 4.3 -28.0°
Drops below altitude 10° 23:05:04 10° 342° (NNW) 1,984 7.1 -28.3°
Sets 23:07:16 0° 345° (NNW) 2,894 8.2 -28.5°
